Time,TemperatureF,DewpointF,PressureIn,WindDirection,WindDirectionDegrees,WindSpeedMPH,WindSpeedGustMPH,Humidity,HourlyPrecipIn,Conditions,Clouds,dailyrainin,SoftwareType,DateUTC
2013-09-03 00:00:00,80.7,70.4,29.90,South,187,1.4,7.0,71,0.00,,,0.00,WUHU216DAVISVP2,2013-09-03 05:00:00,
2013-09-03 00:23:00,80.0,70.5,29.94,SSW,199,0.0,1.1,72,0.00,,,0.00,WUHU216DAVISVP2,2013-09-03 05:23:00,
2013-09-03 00:30:00,79.6,70.2,29.90,SSW,210,0.0,1.0,73,0.00,,,0.00,WUHU216DAVISVP2,2013-09-03 05:30:00,
2013-09-03 00:53:00,78.7,70.4,29.94,SSW,199,0.0,1.0,75,0.00,,,0.00,WUHU216DAVISVP2,2013-09-03 05:53:00,
2013-09-03 01:00:00,78.3,69.7,29.90,SSW,210,0.0,1.0,75,0.00,,,0.00,WUHU216DAVISVP2,2013-09-03 06:00:00,
2013-09-03 01:23:00,77.5,69.6,29.94,SSW,199,0.0,0.0,76,0.00,,,0.00,WUHU216DAVISVP2,2013-09-03 06:23:00,
2013-09-03 01:30:00,77.1,68.9,29.89,North,7,0.0,0.0,76,0.00,,,0.00,WUHU216DAVISVP2,2013-09-03 06:30:00,
2013-09-03 01:53:00,76.3,69.2,29.94,SSW,199,0.0,0.0,78,0.00,,,0.00,WUHU216DAVISVP2,2013-09-03 06:53:00,
2013-09-03 02:00:00,75.8,68.8,29.90,North,7,0.0,0.0,79,0.00,,,0.00,WUHU216DAVISVP2,2013-09-03 07:00:00,
2013-09-03 02:23:00,75.0,68.6,29.93,SSW,199,0.0,0.0,80,0.00,,,0.00,WUHU216DAVISVP2,2013-09-03 07:23:00,
2013-09-03 02:30:00,74.6,68.4,29.89,North,7,0.0,0.0,81,0.00,,,0.00,WUHU216DAVISVP2,2013-09-03 07:30:00,
2013-09-03 02:53:00,74.1,68.4,29.92,SSW,199,0.0,0.0,82,0.00,,,0.00,WUHU216DAVISVP2,2013-09-03 07:53:00,
2013-09-03 03:00:00,73.8,68.3,29.88,North,7,0.0,0.0,83,0.00,,,0.00,WUHU216DAVISVP2,2013-09-03 08:00:00,
2013-09-03 03:23:00,73.3,68.3,29.93,SSW,199,0.0,0.0,84,0.00,,,0.00,WUHU216DAVISVP2,2013-09-03 08:23:00,
2013-09-03 03:30:00,73.2,68.4,29.89,North,7,0.0,4.0,85,0.00,,,0.00,WUHU216DAVISVP2,2013-09-03 08:30:00,
2013-09-03 03:53:00,73.5,68.2,29.93,NNE,19,0.0,4.0,83,0.00,,,0.00,WUHU216DAVISVP2,2013-09-03 08:53:00,
2013-09-03 04:00:00,73.3,68.2,29.89,North,7,1.4,4.0,84,0.00,,,0.00,WUHU216DAVISVP2,2013-09-03 09:00:00,
2013-09-03 04:23:00,73.1,67.8,29.93,NNE,19,0.0,0.0,83,0.00,,,0.00,WUHU216DAVISVP2,2013-09-03 09:23:00,
2013-09-03 04:30:00,73.0,67.5,29.89,NW,322,0.0,2.0,83,0.00,,,0.00,WUHU216DAVISVP2,2013-09-03 09:30:00,
2013-09-03 04:53:00,72.6,67.3,29.93,NW,318,0.0,0.0,83,0.00,,,0.00,WUHU216DAVISVP2,2013-09-03 09:53:00,
2013-09-03 05:00:00,72.5,67.7,29.89,NW,322,0.0,2.0,85,0.00,,,0.00,WUHU216DAVISVP2,2013-09-03 10:00:00,
2013-09-03 05:23:00,72.2,67.6,29.94,NNW,328,0.0,0.0,85,0.00,,,0.00,WUHU216DAVISVP2,2013-09-03 10:23:00,
2013-09-03 05:30:00,72.0,67.6,29.90,North,7,0.0,0.0,86,0.00,,,0.00,WUHU216DAVISVP2,2013-09-03 10:30:00,
2013-09-03 05:53:00,72.0,67.7,29.94,NNW,328,0.0,0.0,86,0.00,,,0.00,WUHU216DAVISVP2,2013-09-03 10:53:00,
2013-09-03 06:00:00,71.8,67.0,29.90,North,7,0.0,0.0,85,0.00,,,0.00,WUHU216DAVISVP2,2013-09-03 11:00:00,
2013-09-03 06:23:00,71.4,67.1,29.94,NNW,328,0.0,0.0,86,0.00,,,0.00,WUHU216DAVISVP2,2013-09-03 11:23:00,
2013-09-03 06:30:00,71.2,66.8,29.90,North,7,0.0,0.0,86,0.00,,,0.00,WUHU216DAVISVP2,2013-09-03 11:30:00,
2013-09-03 06:53:00,71.0,67.0,29.94,NNW,328,0.0,0.0,87,0.00,,,0.00,WUHU216DAVISVP2,2013-09-03 11:53:00,
2013-09-03 07:00:00,70.8,66.7,29.90,North,7,0.0,0.0,87,0.00,,,0.00,WUHU216DAVISVP2,2013-09-03 12:00:00,
2013-09-03 07:23:00,70.4,66.4,29.95,NNW,328,0.0,0.0,87,0.00,,,0.00,WUHU216DAVISVP2,2013-09-03 12:23:00,
2013-09-03 07:30:00,70.6,67.2,29.91,North,7,0.0,0.0,89,0.00,,,0.00,WUHU216DAVISVP2,2013-09-03 12:30:00,
2013-09-03 07:53:00,72.2,68.9,29.95,NNW,328,0.0,1.1,89,0.00,,,0.00,WUHU216DAVISVP2,2013-09-03 12:53:00,
2013-09-03 08:00:00,73.8,69.0,29.92,SSE,165,0.0,2.0,85,0.00,,,0.00,WUHU216DAVISVP2,2013-09-03 13:00:00,
2013-09-03 08:23:00,77.0,70.9,29.97,South,169,2.2,6.0,81,0.00,,,0.00,WUHU216DAVISVP2,2013-09-03 13:23:00,
2013-09-03 08:30:00,78.1,71.1,29.93,SSE,165,1.4,6.0,79,0.00,,,0.00,WUHU216DAVISVP2,2013-09-03 13:30:00,
2013-09-03 08:53:00,79.4,71.8,29.98,SSW,200,1.1,5.0,77,0.00,,,0.00,WUHU216DAVISVP2,2013-09-03 13:53:00,
2013-09-03 09:00:00,80.1,71.8,29.94,South,187,1.4,5.0,76,0.00,,,0.00,WUHU216DAVISVP2,2013-09-03 14:00:00,
2013-09-03 09:23:00,82.1,72.5,29.99,SSW,201,1.1,5.5,72,0.00,,,0.00,WUHU216DAVISVP2,2013-09-03 14:23:00,
2013-09-03 09:30:00,83.1,71.9,29.95,SSW,210,1.4,6.0,69,0.00,,,0.00,WUHU216DAVISVP2,2013-09-03 14:30:00,
2013-09-03 09:53:00,85.1,71.5,29.99,SW,214,0.0,5.5,63,0.00,,,0.00,WUHU216DAVISVP2,2013-09-03 14:53:00,
2013-09-03 10:00:00,85.7,71.2,29.95,SSW,210,1.4,6.0,62,0.00,,,0.00,WUHU216DAVISVP2,2013-09-03 15:00:00,
2013-09-03 10:23:00,86.9,72.3,29.99,South,173,1.1,6.6,61,0.00,,,0.00,WUHU216DAVISVP2,2013-09-03 15:23:00,
2013-09-03 10:30:00,87.7,71.6,29.95,West,277,2.7,7.0,59,0.00,,,0.00,WUHU216DAVISVP2,2013-09-03 15:30:00,
2013-09-03 10:53:00,89.0,71.7,30.00,WSW,240,0.0,6.6,56,0.00,,,0.00,WUHU216DAVISVP2,2013-09-03 15:53:00,
2013-09-03 11:00:00,89.1,70.8,29.96,SW,232,2.7,6.0,55,0.00,,,0.00,WUHU216DAVISVP2,2013-09-03 16:00:00,
2013-09-03 11:23:00,90.4,71.3,30.00,NW,306,3.3,6.6,53,0.00,,,0.00,WUHU216DAVISVP2,2013-09-03 16:23:00,
2013-09-03 11:30:00,90.5,70.5,29.96,SW,232,2.7,6.0,52,0.00,,,0.00,WUHU216DAVISVP2,2013-09-03 16:30:00,
2013-09-03 11:53:00,92.1,71.2,29.99,South,178,4.4,7.7,50,0.00,,,0.00,WUHU216DAVISVP2,2013-09-03 16:53:00,
2013-09-03 12:00:00,92.4,70.5,29.94,SSE,165,2.7,7.0,49,0.00,,,0.00,WUHU216DAVISVP2,2013-09-03 17:00:00,
2013-09-03 12:23:00,94.1,70.5,29.98,South,176,5.5,7.7,46,0.00,,,0.00,WUHU216DAVISVP2,2013-09-03 17:23:00,
2013-09-03 12:30:00,93.9,70.0,29.94,SSE,165,2.7,8.0,46,0.00,,,0.00,WUHU216DAVISVP2,2013-09-03 17:30:00,
2013-09-03 12:53:00,94.9,69.2,29.97,SSE,167,3.3,8.8,43,0.00,,,0.00,WUHU216DAVISVP2,2013-09-03 17:53:00,
2013-09-03 13:00:00,95.1,67.7,29.93,SSE,165,2.7,8.0,41,0.00,,,0.00,WUHU216DAVISVP2,2013-09-03 18:00:00,
2013-09-03 13:23:00,96.1,67.4,29.96,SE,131,5.5,8.8,39,0.00,,,0.00,WUHU216DAVISVP2,2013-09-03 18:23:00,
2013-09-03 13:30:00,95.6,68.1,29.92,SE,142,2.7,8.0,41,0.00,,,0.00,WUHU216DAVISVP2,2013-09-03 18:30:00,
2013-09-03 13:53:00,97.2,68.4,29.95,SW,218,3.3,6.6,39,0.00,,,0.00,WUHU216DAVISVP2,2013-09-03 18:53:00,
2013-09-03 14:00:00,97.6,67.7,29.91,South,187,2.7,6.0,38,0.00,,,0.00,WUHU216DAVISVP2,2013-09-03 19:00:00,
2013-09-03 14:23:00,98.6,68.0,29.94,ESE,123,4.4,7.0,37,0.00,,,0.00,WUHU216DAVISVP2,2013-09-03 19:23:00,
2013-09-03 14:30:00,97.8,66.3,29.89,ESE,120,2.7,7.0,36,0.00,,,0.00,WUHU216DAVISVP2,2013-09-03 19:30:00,
2013-09-03 14:53:00,98.0,66.7,29.92,NNE,33,0.0,8.0,36,0.00,,,0.00,WUHU216DAVISVP2,2013-09-03 19:53:00,
2013-09-03 15:00:00,97.9,66.4,29.88,NNE,30,2.7,8.0,36,0.00,,,0.00,WUHU216DAVISVP2,2013-09-03 20:00:00,
2013-09-03 15:23:00,99.3,67.0,29.90,SW,216,2.2,7.7,35,0.00,,,0.00,WUHU216DAVISVP2,2013-09-03 20:23:00,
2013-09-03 15:30:00,99.2,65.9,29.86,SSE,165,2.7,7.0,34,0.00,,,0.00,WUHU216DAVISVP2,2013-09-03 20:30:00,
2013-09-03 15:53:00,97.8,64.0,29.88,South,177,4.4,7.7,33,0.00,,,0.00,WUHU216DAVISVP2,2013-09-03 20:53:00,
2013-09-03 16:00:00,97.2,63.3,29.83,SE,142,2.7,8.0,33,0.00,,,0.00,WUHU216DAVISVP2,2013-09-03 21:00:00,
2013-09-03 16:23:00,99.8,64.0,29.87,SW,232,5.5,7.0,31,0.00,,,0.00,WUHU216DAVISVP2,2013-09-03 21:23:00,
2013-09-03 16:30:00,100.7,64.5,29.82,SE,142,2.7,8.0,31,0.00,,,0.00,WUHU216DAVISVP2,2013-09-03 21:30:00,
2013-09-03 16:53:00,100.5,64.6,29.86,WNW,289,1.1,8.0,31,0.00,,,0.00,WUHU216DAVISVP2,2013-09-03 21:53:00,
2013-09-03 17:00:00,101.2,65.0,29.82,SW,232,2.7,8.0,31,0.00,,,0.00,WUHU216DAVISVP2,2013-09-03 22:00:00,
2013-09-03 17:23:00,100.4,62.6,29.86,SE,137,4.4,8.0,29,0.00,,,0.00,WUHU216DAVISVP2,2013-09-03 22:23:00,
2013-09-03 17:30:00,99.9,61.0,29.82,SE,142,2.7,8.0,28,0.00,,,0.00,WUHU216DAVISVP2,2013-09-03 22:30:00,
2013-09-03 17:53:00,99.9,61.2,29.85,SE,142,4.4,6.6,28,0.00,,,0.00,WUHU216DAVISVP2,2013-09-03 22:53:00,
2013-09-03 18:00:00,99.4,60.5,29.81,SE,142,1.4,7.0,28,0.00,,,0.00,WUHU216DAVISVP2,2013-09-03 23:00:00,
2013-09-03 18:23:00,99.6,61.0,29.85,SSW,212,1.1,4.4,28,0.00,,,0.00,WUHU216DAVISVP2,2013-09-03 23:23:00,
2013-09-03 18:30:00,99.0,60.2,29.81,East,97,1.4,6.0,28,0.00,,,0.00,WUHU216DAVISVP2,2013-09-03 23:30:00,
2013-09-03 18:53:00,97.8,60.4,29.86,SE,138,1.1,8.0,29,0.00,,,0.00,WUHU216DAVISVP2,2013-09-03 23:53:00,
2013-09-03 19:00:00,97.2,60.6,29.82,SE,142,2.7,8.0,30,0.00,,,0.00,WUHU216DAVISVP2,2013-09-04 00:00:00,
2013-09-03 19:23:00,96.1,60.8,29.86,SE,135,2.2,4.0,31,0.00,,,0.00,WUHU216DAVISVP2,2013-09-04 00:23:00,
2013-09-03 19:30:00,95.5,61.8,29.82,SE,142,1.4,4.0,33,0.00,,,0.00,WUHU216DAVISVP2,2013-09-04 00:30:00,
2013-09-03 19:53:00,94.0,64.0,29.86,SSE,164,0.0,5.5,37,0.00,,,0.00,WUHU216DAVISVP2,2013-09-04 00:53:00,
2013-09-03 20:00:00,93.0,63.6,29.82,SE,142,1.4,5.0,38,0.00,,,0.00,WUHU216DAVISVP2,2013-09-04 01:00:00,
2013-09-03 20:23:00,91.4,64.6,29.87,South,170,0.0,2.0,41,0.00,,,0.00,WUHU216DAVISVP2,2013-09-04 01:23:00,
2013-09-03 20:30:00,90.7,64.5,29.83,SSE,165,0.0,2.0,42,0.00,,,0.00,WUHU216DAVISVP2,2013-09-04 01:30:00,
2013-09-03 20:53:00,89.0,64.5,29.88,South,170,0.0,0.0,44,0.00,,,0.00,WUHU216DAVISVP2,2013-09-04 01:53:00,
2013-09-03 21:00:00,88.1,64.1,29.84,SE,142,0.0,4.0,45,0.00,,,0.00,WUHU216DAVISVP2,2013-09-04 02:00:00,
2013-09-03 21:23:00,88.9,65.1,29.89,SE,145,2.2,5.5,45,0.00,,,0.00,WUHU216DAVISVP2,2013-09-04 02:23:00,
2013-09-03 21:30:00,89.0,64.9,29.85,SE,142,2.7,5.0,45,0.00,,,0.00,WUHU216DAVISVP2,2013-09-04 02:30:00,
2013-09-03 21:54:00,88.8,66.9,29.90,SE,143,5.5,9.9,48,0.00,,,0.00,WUHU216DAVISVP2,2013-09-04 02:54:00,
2013-09-03 22:00:00,88.1,67.7,29.86,SE,142,5.4,10.0,51,0.00,,,0.00,WUHU216DAVISVP2,2013-09-04 03:00:00,
2013-09-03 22:24:00,87.1,69.9,29.91,SSE,148,3.3,9.9,56,0.00,,,0.00,WUHU216DAVISVP2,2013-09-04 03:24:00,
2013-09-03 22:30:00,86.8,69.7,29.87,SSE,165,4.1,9.0,57,0.00,,,0.00,WUHU216DAVISVP2,2013-09-04 03:30:00,
2013-09-03 23:00:00,86.1,71.0,29.92,SSE,165,3.3,10.0,60,0.00,,,0.00,WUHU216DAVISVP2,2013-09-04 04:00:00,
2013-09-03 23:30:00,85.5,70.4,29.93,SSE,165,3.3,9.0,60,0.00,,,0.00,WUHU216DAVISVP2,2013-09-04 04:30:00,